Location: Unspecified
(50.7693°N, 0.0000°E)
Time: 05:45:32
(UTC+00:00)

Vanguard 2 - Pass Details

Date: 21 June 2019
Orbit: 553 x 2938 km, 32.9° (Epoch: 18 July)

Event Time Altitude Azimuth Distance (km) Brightness Sun altitude
Rises 09:41:46 0° 229° (SW) 3,545 10.8 51.6°
Reaches altitude 10° 09:44:35 10° 213° (SSW) 2,886 10.6 52.0°
Maximum altitude 09:49:55 22° 165° (SSE) 2,624 11.1 52.7°
Drops below altitude 10° 09:57:21 10° 120° (ESE) 4,192 12.1 53.6°
Sets 10:02:34 0° 109° (ESE) 5,657 12.5 54.3°
